Location: Erlenbrunn
(49.1717°N, 7.6142°E)
Time: 17:50:40
(UTC+00:00)

Cosmos 1933 - Pass Details

Date: 25 November 2020
Orbit: 546 x 564 km, 82.5° (Epoch: 23 January)

Event Time Altitude Azimuth Distance (km) Brightness Sun altitude
Rises 16:43:51 0° 157° (SSE) 2,717 6.8 -10.5°
Reaches altitude 10° 16:46:17 10° 143° (SE) 1,831 5.8 -10.9°
Maximum altitude 16:49:34 25° 89° (E) 1,161 4.4 -11.4°
Enters shadow 16:52:14 13° 40° (NE) 1,641 5.2 -11.8°
